Location: Mattawa
(46.3175°N, 78.7022°W)
Time: 06:34:00
(UTC-04:00)

ISS - Visible Passes

Search period start: 16 July 2019 00:00
Search period end: 26 July 2019 00:00
Orbit: 409 x 418 km, 51.6° (Epoch: 16 July)

Date Brightness Start Highest point End Pass type
(mag) Time Alt. Az. Time Alt. Az. Time Alt. Az.
16 Jul -3.6 00:07:01 10° WSW 00:10:20 69° NNW 00:13:40 10° ENE visible
16 Jul -1.9 01:44:21 10° WNW 01:47:23 31° N 01:50:25 10° ENE visible
16 Jul -2.5 03:21:22 10° WNW 03:24:34 43° NNE 03:27:45 10° E visible
16 Jul -3.5 04:58:05 10° WNW 05:01:17 46° SW 05:04:28 10° SE visible
16 Jul -2.0 21:43:04 10° SSE 21:44:49 14° SE 21:46:35 10° ESE visible
16 Jul -4.0 23:17:42 10° WSW 23:21:02 80° SSE 23:24:22 10° ENE visible
17 Jul -2.1 00:54:51 10° WNW 00:57:57 35° N 01:01:03 10° ENE visible
17 Jul -2.1 02:32:02 10° WNW 02:35:09 35° N 02:38:15 10° E visible
17 Jul -3.9 04:08:43 10° WNW 04:12:02 75° SSW 04:15:20 10° SE visible
17 Jul -3.7 22:28:31 10° SW 22:31:46 50° SE 22:35:01 10° ENE visible
18 Jul -2.5 00:05:20 10° W 00:08:31 41° NNW 00:11:43 10° ENE visible
18 Jul -1.9 01:42:39 10° WNW 01:45:42 32° N 01:48:44 10° ENE visible
18 Jul -3.6 03:19:24 10° WNW 03:22:44 73° NNE 03:26:02 10° ESE visible
18 Jul -2.4 04:56:36 10° W 04:59:07 20° SW 05:01:37 10° S visible
18 Jul -3.0 21:39:33 10° SSW 21:42:33 31° SE 21:45:33 10° ENE visible
18 Jul -3.0 23:15:50 10° W 23:19:07 54° NNW 23:22:24 10° ENE visible
19 Jul -1.9 00:53:12 10° WNW 00:56:14 31° N 00:59:15 10° ENE visible
19 Jul -3.0 02:30:06 10° WNW 02:33:22 52° NNE 02:36:37 10° E visible
19 Jul -3.1 04:06:56 10° WNW 04:09:57 32° SW 04:12:56 10° SSE visible
19 Jul -3.6 22:26:24 10° WSW 22:29:45 76° NNW 22:33:05 10° ENE visible
20 Jul -1.9 00:03:42 10° WNW 00:06:45 32° N 00:09:48 10° ENE visible
20 Jul -2.5 01:40:45 10° WNW 01:43:56 40° NNE 01:45:56 19° ENE visible
20 Jul -1.8 03:17:28 10° WNW 03:18:29 18° WNW 03:18:29 18° WNW visible
20 Jul -3.8 21:37:05 10° SW 21:40:24 71° SSE 21:43:44 10° ENE visible
20 Jul -2.2 23:14:09 10° W 23:17:16 36° NNW 23:20:24 10° ENE visible
21 Jul -2.1 00:51:23 10° WNW 00:54:29 34° N 00:56:07 21° ENE visible
21 Jul -1.4 02:28:04 10° WNW 02:28:52 16° WNW 02:28:52 16° WNW visible
21 Jul -2.5 22:24:36 10° W 22:27:49 44° NNW 22:31:02 10° ENE visible
22 Jul -1.9 00:01:56 10° WNW 00:04:59 31° N 00:07:35 13° ENE visible
22 Jul -2.0 01:38:43 10° WNW 01:40:22 26° NW 01:40:22 26° NW visible
22 Jul -3.1 21:35:04 10° WSW 21:38:22 59° NNW 21:41:41 10° ENE visible
22 Jul -1.9 23:12:25 10° WNW 23:15:28 31° N 23:18:29 10° ENE visible
23 Jul -2.7 00:49:21 10° WNW 00:52:10 44° N 00:52:10 44° N visible
23 Jul -2.0 22:22:51 10° WNW 22:25:56 33° N 22:29:01 10° ENE visible
23 Jul -2.4 23:59:58 10° WNW 00:03:08 38° NNE 00:04:06 30° NE visible
24 Jul -0.9 01:36:39 10° WNW 01:36:54 12° WNW 01:36:54 12° WNW visible
24 Jul -2.2 21:33:16 10° W 21:36:25 38° NNW 21:39:35 10° ENE visible
24 Jul -2.1 23:10:32 10° WNW 23:13:37 33° N 23:16:06 14° ENE visible
25 Jul -2.0 00:47:14 10° WNW 00:48:54 27° WNW 00:48:54 27° WNW visible
25 Jul -2.0 22:21:01 10° WNW 22:24:04 31° N 22:27:06 10° ENE visible
